Volver al catálogo

FENGYUN 1C DEB

ActivoPO
NORAD 31416·DEBRIS·🇨🇳 China

Lanzado May 10, 1999 desde Taiyuan Satellite Launch Center

Loading…

Próximos Pases (próximas 24 horas)

TLE

ActualizadoSource: Space-Track

Época: Sep 14, 2026, 10:41 UTC

1 31416U 99025BTC 26257.44520183  .00000658  00000-0  19839-3 0  9991
2 31416  99.0182 328.1690 0133389 156.5793 204.1547 14.41159297694902

Sigue FENGYUN 1C DEB en tiempo real con AllMySat

Download on the App Store